Regional Weather Roundup
Issued by NWS Northern Indiana

Home | Current Version | Previous Version | Text Only | Print | Product List | Glossary Off
Versions: 1 2 3 4 5 6 7 8 9 10 11 12 13 14 15 16 17 18 19 20 21 22 23 24 25 26 27 28 29 30 31 32 33 34 35 36 37 38 39 40 41 42 43 44 45 46 47 48 49 50

571
ASUS43 KIWX 291410
RWRIWX

KIWX WEATHER ROUNDUP
NATIONAL WEATHER SERVICE NORTHERN INDIANA
1000 AM EDT SUN MAY 29 2016

NOTE: "FAIR" INDICATES FEW OR NO CLOUDS BELOW 12,000 FEET WITH NO
SIGNIFICANT WEATHER AND/OR OBSTRUCTIONS TO VISIBILITY.

* THESE STATIONS ARE NOT UNDER NWS QUALITY CONTROL. THEY ALSO MAY NOT
  REPORT WEATHER SUCH AS PRECIPITATION OR FOG.

INZ001>027-291500-
NORTHERN INDIANA

CITY           SKY/WX    TMP DP  RH WIND       PRES   REMARKS
GARY*          MOSUNNY   75  68  78 SW14      30.02R
VALPARAISO     SUNNY     74  63  68 SW15      30.04R
MICHIGAN CITY* SUNNY     73  63  68 SW8       30.03S
LAPORTE*       SUNNY     75  64  69 SW12      30.04S
KNOX*          SUNNY     73  52  46 SW9       30.04R
SOUTH BEND     MOSUNNY   73  62  68 SW9       30.04S
ELKHART*       PTSUNNY   75  66  73 MISG      30.05S
GOSHEN         MOSUNNY   75  63  66 SW10      30.05R
MONTICELLO*    SUNNY     76  64  64 SW8       30.05R
LOGANSPORT*    PTSUNNY   75  68  78 SW12      30.08R
ROCHESTER*     CLOUDY    77  70  78 SW8       30.06S
WARSAW*        MOSUNNY   75  64  69 SW8       30.06R
ANGOLA*          N/A     77  72  83 SW8       30.05F
FORT WAYNE     PTSUNNY   77  67  71 SW12      30.07S
HUNTINGTON*    SUNNY    N/A N/A N/A SW7       30.06S
PERU/GRISSOM   SUNNY     76  68  76 SW12      30.06R
MARION*        PTSUNNY   75  67  76 SW10      30.09R

$$
INZ028>050-291500-
CENTRAL INDIANA

CITY           SKY/WX    TMP DP  RH WIND       PRES   REMARKS
LAFAYETTE      SUNNY     75  66  73 W8        30.06R
KOKOMO*        SUNNY     77  66  69 W12       30.07R
MUNCIE*        MOSUNNY   77  66  68 S9        30.09R
INDIANAPOLIS   MOSUNNY   76  68  76 W9        30.08R

$$
MIZ043>046-050>051-056>058-064>065-071>073-077>080-291500-
SOUTHWEST LOWER MICHIGAN

CITY           SKY/WX    TMP DP  RH WIND       PRES   REMARKS
BATTLE CREEK   SUNNY     73  62  68 SW16      30.04S
BENTON HARBOR  SUNNY     74  62  66 SW13      30.01S
COLDWATER*     SUNNY     76  62  62 SW13      30.05S
HILLSDALE*     MOSUNNY   73  63  70 SW6       30.06S
HOLLAND        SUNNY     73  61  65 S12       30.01S
GRAND RAPIDS   MOSUNNY   76  61  59 SW10      30.01S
KALAMAZOO      MOSUNNY   75  61  61 SW12      30.04R
STURGIS*       MOSUNNY   73  62  68 SW9       30.04S
THREE RIVERS*  FAIR      75  62  63 W6        30.04F

$$
OHZ001>008-015>018-024>025-291500-
NORTHWEST OHIO

CITY           SKY/WX    TMP DP  RH WIND       PRES   REMARKS
WAUSEON*         N/A     75  75 100 SW12      30.07R
DEFIANCE       PTSUNNY   75  66  73 SW9       30.07R
FINDLAY        PTSUNNY   75  65  70 SW9       30.08R
TOLEDO EXPRESS PTSUNNY   74  66  76 SW6       30.06S
TOLEDO METCALF PTSUNNY   77  65  66 SW12      30.07S
LIMA           CLOUDY    74  67  78 S8        30.09S

$$
AND FOR LAKE MICHIGAN COASTAL AND OPEN LAKE BUOY OBSERVATIONS

STATION/POSITION TEMP    WIND        PRES    VSBY  WAVE
                 AIR SEA DIR/SP/G                  HT/PER
                 (F)     (DEG/KT/KT) (MB)    (MI)  (FT/S)
CALUMET HARBOR    71     200/ 10/ 12 1015.1F
MICHIGAN CITY     70     190/ 13/ 15   N/A
BURNS HARBOR      71     210/ 10/ 15 1016.6S
SAINT JOSEPH      70     180/ 12/ 17 1016.6S
SOUTH LAKE BUOY   54 50  170/ 10/ 10 1014.7S         1/ 3
4 MI NW BRIDGMAN  65 61  210/  6/  8   N/A           1/ 3
MICHIGAN CITY     63 57  210/  6/  8   N/A           1

$$
&&




USA.gov is the U.S. government's official web portal to all federal, state and local government web resources and services.